Find GNOMES-4

NORAD ID: 58462 Int'l Des: 2023-185 Owner: PLANQ Country: US operational
LEOCIRCULARRETROGRADESSO

現在のビュー

3D地球を読み込み中...

GNOMES-4について

説明を読み込み中...

次回通過

Passes for default location (London). Set your location on the main map for personalized predictions.

高度履歴

Loading altitude history...

軌道要素

1 58462U 23185A 26159.21788830 .00003448 00000-0 27578-3 0 9995
2 58462 97.4856 216.7080 0010917 9.4973 350.6456 15.00798987137947
Epoch: Jun 8, 2026 • Age: 4 hours

現在のステータス

高度 577.8 km
速度 7.58 km/s
衛星直下点 70.51°N, 28.13°E
打ち上げ日 Dec 1, 2023
運用期間 2.5 years
タイプ other

技術仕様

分類 Payload
質量 30.00 kg
乾燥質量 30.00 kg
総質量 30.00 kg
長さ 0.30 m
直径 0.30 m
スパン 0.60 m
形状 Box + 2 pan
製造者 RAYBL
バスタイプ XSat
フェーズステータス In Orbit
所有者/国 PLANQ/US

Most Searched